THORAD AGENA D DEB, 4547

Orbit data source: Space-Track

THORAD AGENA D DEB, 4547 is space debris in LEO originally from a launch on Tue, 30 Sep 1969 UTC launched from the Air Force Western Test Range (AFWTR). Debris objects in space refer to the collection of defunct objects orbiting the Earth. Examples of debris include non-operational satellites, rocket bodies, and fragments generated from explosions, collisions, or faulty payload assembly.

Loading next visibility...
Identifier
4547, 1969-082GN
Orbit
LEO
Country
Flag of USUS
Related business
Manufacturer
Unknown
Mission
Spacecraft
Bus & Motor
Unknown
Mass
Unknown
Launch date (UTC)
1969-09-30 (57 years ago)
Launch vehicle
Unknown
Launch site
Air Force Western Test Range (AFWTR)
Object type
Payload
Rocket body
Debris
Shape & HBR
Unknown shape, 0.1 m
Radar Cross Section
Small (<0.1 m²)

Expand to show TLE details & history
Last TLE update: 9 hours ago

TLE from 9 hours ago
0 THORAD AGENA D DEB
1 04547U 69082GN  26093.88627527  .00001895  00000-0  67884-3 0  9999
2 04547  69.9906   2.3039 0035197 304.4690  55.3112 14.35119320921355
Epoch: 2026-04-03T21:16Z
TLE epoch observation values (Epoch: 2026-04-03T21:16:14.183Z)
Latitude
-0.00004°
Longitude
-148.96918°
Altitude
762.755 km
Speed
7.481 km/s
True Right ascension
00h 09m 12s
True Declination
0° 00' 00"
Sunlit
Object was in daylight at epoch
Visualization orbit readout
Latitude
Unknown
Longitude
Unknown
Altitude
Unknown
Speed
Unknown
Apparent Right ascension
Unknown
Apparent Declination
Unknown
Sunlit
N/A
Visualization observer readout
Local Sidereal Time
11:49:32
Azimuth
Unknown
Elevation
Unknown
Doppler factor
Unknown
Orbital elements
Apogee altitude
797.846 km
Perigee altitude
747.509 km
Semi-major axis
7,150.814 km
Eccentricity
0.00352
Inclination
69.9906°
RAAN
2.3039°
Arg. of periapsis
304.469°
True anomaly
55.64367°
Mean anomaly
55.3112°
Eccentric anomaly
55.47735°
Mean motion
3.5893 °/min
Orbital period
100.3 mins
BSTAR
0.00067884
Loading maneuver chart data...
Computing Atmospheric mass density...

Documentation

Showing up to 5 results
|